This demonstration page uses our WeatherBlox Daily Observations layout. Learn more.

Left ArrowRight Arrow

39.08367, -84.50855

Hourly Observations for April 6, 2015

Temp ( °F °C ) Dew Point ( °F °C ) Humidity (%) Winds ( mph kmh ) Pressure ( in mb ) Visibility ( mi km ) Precip ( " mm )
12:53 am 00:53 Clear 43 6.1 36 2.2 76 76 SSW 6 9 30.14 1021 10 16 N/A
1:53 am 01:53 Clear 41 5 36 2.2 82 82 N N/A 30.14 1021 10 16 N/A
2:53 am 02:53 Clear 40 4.4 37 2.8 89 89 N N/A 30.14 1021 10 16 N/A
3:53 am 03:53 Clear 39 3.9 36 2.2 89 89 N N/A 30.14 1021 10 16 N/A
4:53 am 04:53 Cloudy 42 5.6 38 3.3 85 85 SSW 3 6 30.14 1021 10 16 N/A
5:53 am 05:53 Cloudy 43 6.1 37 2.8 80 80 N N/A 30.13 1020 10 16 N/A
6:53 am 06:53 Cloudy with Light Rain 45 7.2 37 2.8 74 74 N N/A 30.14 1021 10 16 N/A
7:53 am 07:53 Cloudy 45 7.2 41 5 86 86 N N/A 30.15 1021 10 16 N/A
8:53 am 08:53 Cloudy 47 8.3 41 5 80 80 N N/A 30.14 1021 10 16 N/A
9:53 am 09:53 Cloudy 52 11.1 41 5 66 66 W 3 6 30.14 1021 10 16 N/A
10:53 am 10:53 Cloudy 60 15.6 41 5 50 50 S 9 15 30.13 1020 10 16 N/A
11:53 am 11:53 Cloudy 64 17.8 43 6.1 46 46 SW 12 19 30.12 1020 10 16 N/A
12:53 pm 12:53 Cloudy 66 18.9 43 6.1 43 43 SSW 16 26 30.10 1019 10 16 N/A
1:53 pm 13:53 Cloudy 66 18.9 44 6.7 45 45 SW 15 24 30.09 1019 10 16 N/A
2:53 pm 14:53 Cloudy 67 19.4 48 8.9 51 51 SSW 8 13 30.08 1019 10 16 N/A
3:53 pm 15:53 Cloudy 68 20 49 9.4 51 51 S 13 20 30.05 1018 10 16 N/A
4:53 pm 16:53 Cloudy with Rain 63 17.2 52 11.1 68 68 SW 8 13 30.05 1018 4 6 0.02 0.51
5:45 pm 17:45 Cloudy with Thunderstorms 60 15.6 56 13.3 86 86 WNW 6 9 30.03 1017 9 14 0.03 0.76
5:53 pm 17:53 Cloudy with Strong Thunderstorms 59 15 56 13.3 90 90 ESE 5 7 30.04 1017 5 8 0.12 3.05
6:09 pm 18:09 Cloudy 59 15 58 14.4 96 96 N N/A 30.03 1017 8 13 0.01 0.25
6:53 pm 18:53 Cloudy 58 14.4 58 14.4 100 100 N N/A 30.05 1018 8 13 0.01 0.25
7:53 pm 19:53 Sunny 57 13.9 57 13.9 100 100 N 3 6 30.04 1017 8 13 N/A
8:53 pm 20:53 Mostly Cloudy 55 12.8 55 12.8 100 100 N N/A 30.05 1018 8 13 N/A
9:53 pm 21:53 Mostly Cloudy with Patchy Fog 54 12.2 54 12.2 100 100 N N/A 30.06 1018 4 6 N/A
10:04 pm 22:04 Mostly Cloudy with Patchy Fog 53 11.7 53 11.7 100 100 N N/A 30.06 1018 2 3 N/A
10:53 pm 22:53 Mostly Cloudy with Patchy Fog 52 11.1 52 11.1 100 100 N N/A 30.07 1018 2 3 N/A
11:00 pm 23:00 Mostly Cloudy with Fog 52 11 52 11 100 100 N N/A 30.09 1019 0 0 N/A
11:53 pm 23:53 Cloudy with Fog 51 10.6 51 10.6 100 100 N N/A 30.08 1019 0 0 N/A

Powered by AerisWeather